User: anonymous   Login
Location: Unspecified
(0.0000°N, 0.0000°E)
Time: 06:50:09
(UTC+02:00)
Language:

AO-7 - Orbit

View from above orbital plane
View from above orbital plane
View from above satellite
View from above satellite

Ground track
Ground track

The orbit data is extracted from the following two-line orbital elements,

1 07530U 74089B   15180.84082722 -.00000041  00000-0  17645-4 0  9994
2 07530 101.5210 155.9975 0011489 279.4282 108.5751 12.53615079858844
Epoch (UTC): 29 June 2015 20:10:47
Eccentricity: 0.0011489
inclination: 101.5210°
perigee height: 1440 km
apogee height: 1458 km
right ascension of ascending node: 155.9975°
argument of perigee: 279.4282°
revolutions per day: 12.53615079
mean anomaly at epoch: 108.5751°
orbit number at epoch: 85884

The dashed part of the orbit path shows where the satellite is in the earth's shadow,  

DLR